Location: Maz�
(47.4500°N, 0.2670°W)
Time: 00:50:05
(UTC+02:00)

ISS - Visible Passes

Search period start: 27 March 2023 00:00
Search period end: 06 April 2023 00:00
Orbit: 414 x 422 km, 51.6° (Epoch: 26 March)

Date Brightness Start Highest point End Pass type
(mag) Time Alt. Az. Time Alt. Az. Time Alt. Az.
27 Mar -3.7 22:06:36 10° WNW 22:09:57 69° NNE 22:10:26 57° ENE visible
28 Mar -3.3 21:18:31 10° WNW 21:21:50 53° NNE 21:24:18 16° E visible
28 Mar -1.8 22:55:24 10° WNW 22:57:14 26° W 22:57:14 26° W visible
29 Mar -3.6 22:07:11 10° WNW 22:10:30 60° SSW 22:11:05 49° SSE visible
30 Mar -3.8 21:18:58 10° WNW 21:22:21 88° SSW 21:24:57 16° ESE visible
30 Mar -1.2 22:56:25 10° W 22:57:52 16° WSW 22:57:52 16° WSW visible
31 Mar -2.2 22:07:47 10° W 22:10:39 26° SW 22:11:44 22° S visible
01 Apr -2.8 21:19:19 10° WNW 21:22:29 41° SW 21:25:37 10° SE visible
02 Apr -1.0 22:09:14 10° WSW 22:10:25 12° SW 22:11:37 10° SSW visible
03 Apr -1.4 21:19:53 10° W 21:22:16 18° SW 21:24:39 10° S visible
